2018-11-15T00:00:08Z,166.148.81.45,# 18.6549,  4.50738,    2.937, 0.2708, 0.0000, 0.0003, 0.0002,  33.7521, 15 Nov 2018 00:00:02,  24.1544, 14.1,  86.6
2018-11-15T00:04:08Z,166.148.81.45,# 18.6524,  4.50708,    3.014, 0.2705, 0.0000, 0.0002, 0.0003,  33.7516, 15 Nov 2018 00:04:02,  24.1547, 14.1,  86.6
2018-11-15T00:08:08Z,166.148.81.45,# 18.6510,  4.50698,    2.948, 0.2702, 0.0000, 0.0002, 0.0002,  33.7519, 15 Nov 2018 00:08:02,  24.1553, 14.1,  85.5
2018-11-15T00:12:08Z,166.148.81.45,# 18.6497,  4.50689,    3.053, 0.2700, 0.0000, 0.0002, 0.0003,  33.7522, 15 Nov 2018 00:12:02,  24.1559, 14.1, 101.1
2018-11-15T00:16:08Z,166.148.81.45,# 18.6483,  4.50669,    2.905, 0.2699, 0.0000, 0.0001, 0.0003,  33.7518, 15 Nov 2018 00:16:02,  24.1559, 14.0, 122.1
2018-11-15T00:20:08Z,166.148.81.45,# 18.6459,  4.50653,    2.925, 0.2701, 0.0000, 0.0001, 0.0002,  33.7523, 15 Nov 2018 00:20:02,  24.1569, 14.1,  98.9
2018-11-15T00:24:08Z,166.148.81.45,# 18.6415,  4.50598,    2.948, 0.2699, 0.0000, 0.0002, 0.0003,  33.7513, 15 Nov 2018 00:24:02,  24.1572, 14.1, 111.6
2018-11-15T00:28:08Z,166.148.81.45,# 18.6383,  4.50575,    2.883, 0.2700, 0.0000, 0.0002, 0.0001,  33.7520, 15 Nov 2018 00:28:02,  24.1586, 14.1, 106.0
2018-11-15T00:32:08Z,166.148.81.45,# 18.6358,  4.50542,    2.804, 0.2693, 0.0000, 0.0003, 0.0003,  33.7514, 15 Nov 2018 00:32:02,  24.1587, 14.1, 109.7
2018-11-15T00:36:08Z,166.148.81.45,# 18.6307,  4.50492,    2.788, 0.2693, 0.0000, 0.0002, 0.0003,  33.7513, 15 Nov 2018 00:36:02,  24.1599, 14.1,  96.2
2018-11-15T00:40:08Z,166.148.81.45,# 18.6264,  4.50460,    2.929, 0.2695, 0.0000, 0.0002, 0.0002,  33.7522, 15 Nov 2018 00:40:02,  24.1616, 14.1, 110.8
2018-11-15T00:44:08Z,166.148.81.45,# 18.6267,  4.50465,    2.835, 0.2687, 0.0000, 0.0002, 0.0002,  33.7523, 15 Nov 2018 00:44:02,  24.1617, 14.1, 101.1
2018-11-15T00:48:08Z,166.148.81.45,# 18.6230,  4.50417,    2.822, 0.2689, 0.0000, 0.0003, 0.0003,  33.7513, 15 Nov 2018 00:48:02,  24.1619, 14.1, 110.0
2018-11-15T00:52:08Z,166.148.81.45,# 18.6204,  4.50396,    2.874, 0.2687, 0.0000, 0.0002, 0.0003,  33.7517, 15 Nov 2018 00:52:02,  24.1628, 14.1, 107.6
2018-11-15T00:56:08Z,166.148.81.45,# 18.6170,  4.50352,    2.793, 0.2685, 0.0000, 0.0002, 0.0001,  33.7509, 15 Nov 2018 00:56:02,  24.1630, 14.1,  98.3
2018-11-15T01:00:08Z,166.148.81.45,# 18.6118,  4.50316,    2.813, 0.2687, 0.0000, 0.0001, 0.0002,  33.7520, 15 Nov 2018 01:00:02,  24.1652, 14.1, 111.4
2018-11-15T01:04:08Z,166.148.81.45,# 18.6071,  4.50268,    2.783, 0.2683, 0.0000, 0.0002, 0.0002,  33.7518, 15 Nov 2018 01:04:02,  24.1663, 14.0, 117.0
2018-11-15T01:08:08Z,166.148.81.45,# 18.6001,  4.50194,    2.810, 0.2683, 0.0000, 0.0002, 0.0002,  33.7514, 15 Nov 2018 01:08:02,  24.1676, 14.0, 119.4
2018-11-15T01:12:08Z,166.148.81.45,# 18.5966,  4.50166,    2.749, 0.2681, 0.0000, 0.0002, 0.0002,  33.7520, 15 Nov 2018 01:12:02,  24.1689, 14.1,  93.4
2018-11-15T01:16:08Z,166.148.81.45,# 18.5952,  4.50159,    2.877, 0.2682, 0.0000, 0.0002, 0.0002,  33.7524, 15 Nov 2018 01:16:02,  24.1697, 14.1, 110.7
2018-11-15T01:20:08Z,166.148.81.45,# 18.5924,  4.50125,    2.815, 0.2679, 0.0000, 0.0002, 0.0002,  33.7518, 15 Nov 2018 01:20:02,  24.1699, 14.1, 107.9
2018-11-15T01:24:08Z,166.148.81.45,# 18.5873,  4.50073,    2.771, 0.2678, 0.0000, 0.0001, 0.0002,  33.7517, 15 Nov 2018 01:24:02,  24.1711, 14.1, 115.2
2018-11-15T01:28:08Z,166.148.81.45,# 18.5827,  4.50020,    2.602, 0.2676, 0.0000, 0.0001, 0.0002,  33.7511, 15 Nov 2018 01:28:02,  24.1718, 14.1, 102.0
2018-11-15T01:32:08Z,166.148.81.45,# 18.5745,  4.49945,    2.762, 0.2675, 0.0000, 0.0002, 0.0003,  33.7514, 15 Nov 2018 01:32:02,  24.1741, 14.1, 101.5
2018-11-15T01:36:08Z,166.148.81.45,# 18.5699,  4.49904,    2.754, 0.2671, 0.0000, 0.0003, 0.0002,  33.7517, 15 Nov 2018 01:36:02,  24.1754, 14.0, 114.4
2018-11-15T01:40:08Z,166.148.81.45,# 18.5657,  4.49871,    2.710, 0.2670, 0.0000, 0.0001, 0.0001,  33.7525, 15 Nov 2018 01:40:02,  24.1771, 14.1, 110.6
2018-11-15T01:44:08Z,166.148.81.45,# 18.5631,  4.49847,    2.689, 0.2671, 0.0000, 0.0001, 0.0003,  33.7526, 15 Nov 2018 01:44:02,  24.1779, 14.1, 109.8
2018-11-15T01:48:08Z,166.148.81.45,# 18.5606,  4.49823,    2.651, 0.2668, 0.0000, 0.0002, 0.0002,  33.7526, 15 Nov 2018 01:48:02,  24.1785, 14.1, 106.2
2018-11-15T01:52:08Z,166.148.81.45,# 18.5568,  4.49775,    2.602, 0.2667, 0.0000, 0.0002, 0.0002,  33.7518, 15 Nov 2018 01:52:02,  24.1787, 14.1, 105.2
2018-11-15T01:56:08Z,166.148.81.45,# 18.5529,  4.49742,    2.669, 0.2669, 0.0000, 0.0001, 0.0003,  33.7522, 15 Nov 2018 01:56:02,  24.1801, 14.1, 115.0
2018-11-15T02:00:08Z,166.148.81.45,# 18.5496,  4.49712,    2.591, 0.2665, 0.0000, 0.0003, 0.0002,  33.7523, 15 Nov 2018 02:00:02,  24.1810, 14.1, 119.2
2018-11-15T02:04:08Z,166.148.81.45,# 18.5473,  4.49705,    2.555, 0.2664, 0.0000, 0.0002, 0.0002,  33.7536, 15 Nov 2018 02:04:02,  24.1825, 14.1, 110.5
2018-11-15T02:08:08Z,166.148.81.45,# 18.5450,  4.49672,    2.574, 0.2659, 0.0000, 0.0001, 0.0002,  33.7528, 15 Nov 2018 02:08:02,  24.1825, 14.1, 110.2
2018-11-15T02:12:08Z,166.148.81.45,# 18.5448,  4.49670,    2.515, 0.2661, 0.0000, 0.0002, 0.0002,  33.7528, 15 Nov 2018 02:12:02,  24.1825, 14.1, 102.8
2018-11-15T02:16:08Z,166.148.81.45,# 18.5421,  4.49640,    2.528, 0.2661, 0.0000, 0.0002, 0.0003,  33.7525, 15 Nov 2018 02:16:02,  24.1830, 14.1, 100.9
2018-11-15T02:20:08Z,166.148.81.45,# 18.5400,  4.49624,    2.550, 0.2658, 0.0000, 0.0001, 0.0002,  33.7529, 15 Nov 2018 02:20:02,  24.1838, 14.1, 110.5
2018-11-15T02:24:08Z,166.148.81.45,# 18.5396,  4.49619,    2.529, 0.2656, 0.0000, 0.0002, 0.0003,  33.7527, 15 Nov 2018 02:24:02,  24.1837, 14.1, 103.2
2018-11-15T02:28:08Z,166.148.81.45,# 18.5376,  4.49599,    2.495, 0.2655, 0.0000, 0.0002, 0.0003,  33.7528, 15 Nov 2018 02:28:02,  24.1843, 14.1, 105.7
2018-11-15T02:32:08Z,166.148.81.45,# 18.5359,  4.49581,    2.532, 0.2652, 0.0000, 0.0000, 0.0002,  33.7526, 15 Nov 2018 02:32:02,  24.1846, 14.1, 105.1
2018-11-15T02:36:08Z,166.148.81.45,# 18.5349,  4.49578,    2.480, 0.2650, 0.0000, 0.0003, 0.0003,  33.7532, 15 Nov 2018 02:36:02,  24.1853, 14.1, 117.4
2018-11-15T02:40:08Z,166.148.81.45,# 18.5325,  4.49553,    2.535, 0.2649, 0.0000, 0.0001, 0.0002,  33.7530, 15 Nov 2018 02:40:02,  24.1858, 14.1, 111.9
2018-11-15T02:44:08Z,166.148.81.45,# 18.5291,  4.49516,    2.542, 0.2645, 0.0000, 0.0002, 0.0002,  33.7527, 15 Nov 2018 02:44:02,  24.1864, 14.1, 111.0
2018-11-15T02:48:08Z,166.148.81.45,# 18.5273,  4.49496,    2.449, 0.2646, 0.0000, 0.0002, 0.0002,  33.7526, 15 Nov 2018 02:48:02,  24.1868, 14.1, 112.9
2018-11-15T02:52:08Z,166.148.81.45,# 18.5222,  4.49447,    2.375, 0.2643, 0.0000, 0.0002, 0.0003,  33.7527, 15 Nov 2018 02:52:02,  24.1881, 14.1, 101.5
2018-11-15T02:56:08Z,166.148.81.45,# 18.5198,  4.49429,    2.476, 0.2642, 0.0000, 0.0002, 0.0002,  33.7531, 15 Nov 2018 02:56:02,  24.1890, 14.1, 112.7
2018-11-15T03:00:08Z,166.148.81.45,# 18.5202,  4.49445,    2.440, 0.2641, 0.0000, 0.0002, 0.0003,  33.7541, 15 Nov 2018 03:00:02,  24.1897, 14.1, 103.9
2018-11-15T03:04:08Z,166.148.81.45,# 18.5184,  4.49423,    2.408, 0.2639, 0.0000, 0.0002, 0.0002,  33.7537, 15 Nov 2018 03:04:02,  24.1898, 14.1,  88.9
2018-11-15T03:08:08Z,166.148.81.45,# 18.5179,  4.49421,    2.427, 0.2639, 0.0000, 0.0002, 0.0004,  33.7539, 15 Nov 2018 03:08:02,  24.1901, 14.1,  72.4
2018-11-15T03:12:08Z,166.148.81.45,# 18.5143,  4.49379,    2.397, 0.2637, 0.0000, 0.0002, 0.0003,  33.7534, 15 Nov 2018 03:12:02,  24.1906, 14.1,  82.4
2018-11-15T03:16:08Z,166.148.81.45,# 18.5092,  4.49330,    2.408, 0.2632, 0.0000, 0.0002, 0.0003,  33.7535, 15 Nov 2018 03:16:02,  24.1919, 14.0, 119.1
2018-11-15T03:20:08Z,166.148.81.45,# 18.5074,  4.49327,    2.329, 0.2631, 0.0000, 0.0002, 0.0002,  33.7548, 15 Nov 2018 03:20:02,  24.1934, 14.1, 114.5
2018-11-15T03:24:08Z,166.148.81.45,# 18.5077,  4.49333,    2.391, 0.2629, 0.0000, 0.0002, 0.0002,  33.7549, 15 Nov 2018 03:24:02,  24.1934, 14.1, 105.7
2018-11-15T03:28:08Z,166.148.81.45,# 18.5084,  4.49333,    2.359, 0.2630, 0.0000, 0.0002, 0.0001,  33.7544, 15 Nov 2018 03:28:02,  24.1927, 14.1, 106.4
2018-11-15T03:32:08Z,166.148.81.45,# 18.5060,  4.49309,    2.381, 0.2627, 0.0000, 0.0002, 0.0002,  33.7543, 15 Nov 2018 03:32:02,  24.1934, 14.1,  96.2
2018-11-15T03:36:08Z,166.148.81.45,# 18.5065,  4.49325,    2.351, 0.2625, 0.0000, 0.0001, 0.0002,  33.7553, 15 Nov 2018 03:36:02,  24.1940, 14.1, 103.1
2018-11-15T03:40:08Z,166.148.81.45,# 18.5088,  4.49346,    2.341, 0.2622, 0.0000, 0.0001, 0.0003,  33.7552, 15 Nov 2018 03:40:02,  24.1934, 14.1, 114.0
2018-11-15T03:44:08Z,166.148.81.45,# 18.5109,  4.49352,    2.279, 0.2621, 0.0000, 0.0001, 0.0002,  33.7540, 15 Nov 2018 03:44:02,  24.1919, 14.0, 120.0
2018-11-15T03:48:08Z,166.148.81.45,# 18.5067,  4.49296,    2.264, 0.2618, 0.0000, 0.0002, 0.0002,  33.7527, 15 Nov 2018 03:48:02,  24.1919, 14.1, 112.6
2018-11-15T03:52:08Z,166.148.81.45,# 18.5023,  4.49269,    2.299, 0.2618, 0.0000, 0.0001, 0.0003,  33.7540, 15 Nov 2018 03:52:02,  24.1941, 14.1, 107.2
2018-11-15T03:56:08Z,166.148.81.45,# 18.5028,  4.49278,    2.260, 0.2618, 0.0000, 0.0002, 0.0002,  33.7544, 15 Nov 2018 03:56:02,  24.1942, 14.1,  90.8
2018-11-15T04:00:08Z,166.148.81.45,# 18.4983,  4.49233,    2.291, 0.2616, 0.0000, 0.0002, 0.0002,  33.7543, 15 Nov 2018 04:00:02,  24.1952, 14.1,  94.4
2018-11-15T04:04:08Z,166.148.81.45,# 18.5008,  4.49263,    2.247, 0.2611, 0.0000, 0.0001, 0.0002,  33.7547, 15 Nov 2018 04:04:02,  24.1949, 14.1, 101.9
2018-11-15T04:08:08Z,166.148.81.45,# 18.5012,  4.49261,    2.260, 0.2612, 0.0000, 0.0002, 0.0002,  33.7543, 15 Nov 2018 04:08:02,  24.1946, 14.1, 113.1
2018-11-15T04:12:08Z,166.148.81.45,# 18.4991,  4.49238,    2.263, 0.2611, 0.0000, 0.0002, 0.0003,  33.7541, 15 Nov 2018 04:12:02,  24.1949, 14.1, 110.4
2018-11-15T04:16:08Z,166.148.81.45,# 18.5000,  4.49249,    2.173, 0.2606, 0.0000, 0.0002, 0.0003,  33.7542, 15 Nov 2018 04:16:02,  24.1948, 14.1, 104.1
2018-11-15T04:20:08Z,166.148.81.45,# 18.4988,  4.49236,    2.235, 0.2607, 0.0000, 0.0001, 0.0003,  33.7541, 15 Nov 2018 04:20:02,  24.1949, 14.1, 115.0
2018-11-15T04:24:08Z,166.148.81.45,# 18.5027,  4.49287,    2.245, 0.2601, 0.0000, 0.0003, 0.0002,  33.7552, 15 Nov 2018 04:24:02,  24.1948, 14.1, 115.0
2018-11-15T04:28:08Z,166.148.81.45,# 18.5077,  4.49337,    2.239, 0.2602, 0.0000, 0.0003, 0.0002,  33.7554, 15 Nov 2018 04:28:02,  24.1937, 14.0, 119.9
2018-11-15T04:32:08Z,166.148.81.45,# 18.5073,  4.49316,    2.173, 0.2599, 0.0000, 0.0003, 0.0002,  33.7539, 15 Nov 2018 04:32:02,  24.1927, 14.0, 121.9
2018-11-15T04:36:08Z,166.148.81.45,# 18.5004,  4.49256,    2.235, 0.2596, 0.0000, 0.0002, 0.0002,  33.7545, 15 Nov 2018 04:36:02,  24.1948, 14.0, 117.3
2018-11-15T04:40:08Z,166.148.81.45,# 18.4967,  4.49232,    2.184, 0.2594, 0.0000, 0.0002, 0.0002,  33.7556, 15 Nov 2018 04:40:02,  24.1967, 14.0, 116.5
2018-11-15T04:44:08Z,166.148.81.45,# 18.4991,  4.49254,    2.199, 0.2593, 0.0000, 0.0002, 0.0002,  33.7554, 15 Nov 2018 04:44:02,  24.1959, 14.0, 121.6
2018-11-15T04:48:08Z,166.148.81.45,# 18.4991,  4.49249,    2.244, 0.2594, 0.0000, 0.0002, 0.0003,  33.7550, 15 Nov 2018 04:48:02,  24.1956, 14.1, 118.3
2018-11-15T04:52:08Z,166.148.81.45,# 18.5009,  4.49271,    2.159, 0.2590, 0.0000, 0.0002, 0.0003,  33.7554, 15 Nov 2018 04:52:02,  24.1954, 14.0, 114.5
2018-11-15T04:56:08Z,166.148.81.45,# 18.5026,  4.49283,    2.255, 0.2589, 0.0000, 0.0002, 0.0003,  33.7549, 15 Nov 2018 04:56:02,  24.1946, 14.1, 113.8
2018-11-15T05:00:08Z,166.148.81.45,# 18.5022,  4.49276,    2.203, 0.2587, 0.0000, 0.0002, 0.0002,  33.7547, 15 Nov 2018 05:00:02,  24.1946, 14.1, 118.5
2018-11-15T05:04:08Z,166.148.81.45,# 18.5015,  4.49257,    2.237, 0.2586, 0.0000, 0.0002, 0.0003,  33.7537, 15 Nov 2018 05:04:02,  24.1940, 14.1, 107.4
2018-11-15T05:08:08Z,166.148.81.45,# 18.4976,  4.49231,    2.217, 0.2585, 0.0000, 0.0002, 0.0001,  33.7547, 15 Nov 2018 05:08:02,  24.1957, 14.1, 108.2
2018-11-15T05:12:08Z,166.148.81.45,# 18.4995,  4.49252,    2.219, 0.2581, 0.0000, 0.0002, 0.0002,  33.7549, 15 Nov 2018 05:12:02,  24.1954, 14.1, 113.1
2018-11-15T05:16:08Z,166.148.81.45,# 18.5036,  4.49300,    2.197, 0.2580, 0.0000, 0.0003, 0.0002,  33.7556, 15 Nov 2018 05:16:02,  24.1949, 14.1, 114.2
2018-11-15T05:20:08Z,166.148.81.45,# 18.5049,  4.49292,    2.198, 0.2578, 0.0000, 0.0002, 0.0002,  33.7539, 15 Nov 2018 05:20:02,  24.1932, 14.1, 107.9
2018-11-15T05:24:08Z,166.148.81.45,# 18.5008,  4.49251,    2.169, 0.2576, 0.0000, 0.0001, 0.0003,  33.7537, 15 Nov 2018 05:24:02,  24.1942, 14.1, 102.1
2018-11-15T05:28:08Z,166.148.81.45,# 18.5031,  4.49278,    2.186, 0.2573, 0.0000, 0.0002, 0.0004,  33.7542, 15 Nov 2018 05:28:02,  24.1940, 14.1, 111.0
2018-11-15T05:32:08Z,166.148.81.45,# 18.5017,  4.49249,    2.129, 0.2572, 0.0000, 0.0002, 0.0002,  33.7529, 15 Nov 2018 05:32:02,  24.1934, 14.1, 103.4
2018-11-15T05:36:08Z,166.148.81.45,# 18.4931,  4.49162,    2.156, 0.2573, 0.0000, 0.0002, 0.0001,  33.7527, 15 Nov 2018 05:36:02,  24.1953, 14.1, 107.7
2018-11-15T05:40:08Z,166.148.81.45,# 18.489w,  4.49137,    2.190, 0.2568, 0.0000, 0.0002, 0.0003,  33.7533, 15 Nov 2018 05:40:02,  24.1965, 14.1, 110.2
2018-11-15T05:44:08Z,166.148.81.45,# 18.4890,  4.49140,    2.155, 0.2569, 0.0000, 0.0002, 0.0002,  33.7541, 15 Nov 2018 05:44:02,  24.1974, 14.1, 110.0
2018-11-15T05:48:08Z,166.148.81.45,# 18.4843,  4.49069,    2.208, 0.2567, 0.0000, 0.0001, 0.0002,  33.7520, 15 Nov 2018 05:48:02,  24.1969, 14.1, 116.2
2018-11-15T05:52:08Z,166.148.81.45,# 18.4794,  4.49033,    2.158, 0.2565, 0.0000, 0.0002, 0.0002,  33.7530, 15 Nov 2018 05:52:02,  24.1989, 14.1, 112.1
2018-11-15T05:56:08Z,166.148.81.45,# 18.4814,  4.49068,    2.130, 0.2565, 0.0000, 0.0001, 0.0002,  33.7544, 15 Nov 2018 05:56:02,  24.1996, 14.1,  97.9
2018-11-15T06:00:08Z,166.148.81.45,# 18.4816,  4.49065,    2.163, 0.2561, 0.0000, 0.0002, 0.0002,  33.7539, 15 Nov 2018 06:00:02,  24.1991, 14.1,  90.5
2018-11-15T06:04:08Z,166.148.81.45,# 18.4795,  4.49043,    2.243, 0.2563, 0.0000, 0.0001, 0.0001,  33.7537, 15 Nov 2018 06:04:02,  24.1995, 14.1,  93.4
2018-11-15T06:08:08Z,166.148.81.45,# 18.4767,  4.49012,    2.185, 0.2557, 0.0000, 0.0002, 0.0002,  33.7534, 15 Nov 2018 06:08:02,  24.2000, 14.0, 121.0
2018-11-15T06:12:08Z,166.148.81.45,# 18.4741,  4.48979,    2.203, 0.2557, 0.0000, 0.0001, 0.0002,  33.7529, 15 Nov 2018 06:12:02,  24.2002, 14.1, 110.4
2018-11-15T06:16:08Z,166.148.81.45,# 18.4713,  4.48958,    2.260, 0.2553, 0.0000, 0.0001, 0.0004,  33.7533, 15 Nov 2018 06:16:02,  24.2013, 14.1, 102.5
2018-11-15T06:20:08Z,166.148.81.45,# 18.4707,  4.48952,    2.166, 0.2554, 0.0000, 0.0001, 0.0002,  33.7533, 15 Nov 2018 06:20:02,  24.2013, 14.1,  92.7
2018-11-15T06:24:08Z,166.148.81.45,# 18.4699,  4.48944,    2.232, 0.2551, 0.0000, 0.0002, 0.0002,  33.7533, 15 Nov 2018 06:24:02,  24.2015, 14.1, 107.5
2018-11-15T06:28:08Z,166.148.81.45,# 18.4640,  4.48880,    2.290, 0.2552, 0.0000, 0.0002, 0.0002,  33.7528, 15 Nov 2018 06:28:02,  24.2026, 14.1, 107.0
2018-11-15T06:32:08Z,166.148.81.45,# 18.4623,  4.48869,    2.252, 0.2552, 0.0000, 0.0001, 0.0002,  33.7532, 15 Nov 2018 06:32:02,  24.2034, 14.1, 104.5
2018-11-15T06:36:08Z,166.148.81.45,# 18.4621,  4.48877,    2.220, 0.2551, 0.0000, 0.0001, 0.0002,  33.7541, 15 Nov 2018 06:36:02,  24.2041, 14.1,  90.4
2018-11-15T06:40:08Z,166.148.81.45,# 18.4599,  4.48847,    2.282, 0.2548, 0.0000, 0.0002, 0.0002,  33.7534, 15 Nov 2018 06:40:02,  24.2041, 14.1, 114.9
2018-11-15T06:44:08Z,166.148.81.45,# 18.4548,  4.48787,    2.289, 0.2548, 0.0000, 0.0002, 0.0002,  33.7525, 15 Nov 2018 06:44:02,  24.2047, 14.1, 106.6
2018-11-15T06:48:08Z,166.148.81.45,# 18.4218,  4.48113,    2.246, 0.3883, 0.0000, 0.0002, 0.0002,  33.7229, 15 Nov 2018 06:48:02,  24.1902, 14.1,  96.9
2018-11-15T06:52:08Z,166.148.81.45,# 18.4320,  4.48485,    2.224, 0.3429, 0.0000, 0.0002, 0.0003,  33.7458, 15 Nov 2018 06:52:02,  24.2052, 14.1, 103.3
2018-11-15T06:56:08Z,166.148.81.45,# 18.4208,  4.48262,    2.288, 0.3631, 0.0000, 0.0002, 0.0002,  33.7362, 15 Nov 2018 06:56:02,  24.2007, 14.1, 111.4
2018-11-15T07:00:08Z,166.148.81.45,# 18.3610,  4.47368,    2.260, 0.4029, 0.0000, 0.0001, 0.0002,  33.7099, 15 Nov 2018 07:00:02,  24.1954, 14.1, 112.6
2018-11-15T07:04:08Z,166.148.81.45,# 18.4071,  4.48221,    2.294, 0.3543, 0.0000, 0.0002, 0.0002,  33.7439, 15 Nov 2018 07:04:02,  24.2100, 14.1, 105.1
2018-11-15T07:08:08Z,166.148.81.45,# 18.3797,  4.47935,    2.302, 0.3570, 0.0000, 0.0002, 0.0003,  33.7424, 15 Nov 2018 07:08:02,  24.2156, 14.1,  95.5
2018-11-15T07:12:08Z,166.148.81.45,# 18.3284,  4.46957,    2.183, 0.3715, 0.0000, 0.0002, 0.0002,  33.7020, 15 Nov 2018 07:12:02,  24.1974, 14.1,  93.2
2018-11-15T07:16:08Z,166.148.81.45,# 18.3907,  4.48067,    2.328, 0.3423, 0.0000, 0.0002, 0.0002,  33.7444, 15 Nov 2018 07:16:02,  24.2144, 14.1, 108.7
2018-11-15T07:20:08Z,166.148.81.45,# 18.3540,  4.47644,    2.345, 0.3505, 0.0000, 0.0002, 0.0003,  33.7389, 15 Nov 2018 07:20:02,  24.2192, 14.1, 100.0
2018-11-15T07:24:08Z,166.148.81.45,# 18.3966,  4.48095,    2.278, 0.3403, 0.0000, 0.0002, 0.0002,  33.7419, 15 Nov 2018 07:24:02,  24.2111, 14.1,  94.3
2018-11-15T07:28:08Z,166.148.81.45,# 18.4029,  4.48138,    2.365, 0.3413, 0.0000, 0.0002, 0.0002,  33.7404, 15 Nov 2018 07:28:02,  24.2084, 14.1,  98.9
2018-11-15T07:32:08Z,166.148.81.45,# 18.4011,  4.48107,    2.402, 0.3363, 0.0000, 0.0002, 0.0002,  33.7392, 15 Nov 2018 07:32:02,  24.2079, 14.1,  90.4
2018-11-15T07:36:08Z,166.148.81.45,# 18.3997,  4.48102,    2.363, 0.3293, 0.0000, 0.0001, 0.0003,  33.7400, 15 Nov 2018 07:36:02,  24.2089, 14.1, 105.8
2018-11-15T07:41:08Z,0.0.0.0,# 18.3961,  4.48064,    2.387, 0.3247, 0.0000, 0.0002, 0.0003,  33.7397, 15 Nov 2018 07:40:02,  ��I�ʪb��r�bʒr�j

2018-11-15T07:44:08Z,166.148.81.45,401, 15 Nov 2018 07:44:02,  24.2106, 14.1,  93.6
2018-11-15T07:48:08Z,166.148.81.45,# 18.3909,  4.48023,    2.352, 0.3205, 0.0000, 0.0002, 0.0002,  33.7406, 15 Nov 2018 07:48:02,  24.2114, 14.1, 100.1
2018-11-15T07:52:08Z,166.148.81.45,# 18.3879,  4.47990,    2.416, 0.3205, 0.0000, 0.0002, 0.0002,  33.7402, 15 Nov 2018 07:52:02,  24.2119, 14.1, 104.9
2018-11-15T07:56:08Z,166.148.81.45,# 18.3828,  4.47939,    2.377, 0.3116, 0.0000, 0.0001, 0.0002,  33.7401, 15 Nov 2018 07:56:02,  24.2130, 14.1, 102.5
2018-11-15T08:00:08Z,166.148.81.45,# 18.3788,  4.47901,    2.483, 0.3120, 0.0000, 0.0001, 0.0002,  33.7402, 15 Nov 2018 08:00:02,  24.2141, 14.1, 117.7
2018-11-15T08:08:08Z,166.148.81.45,# 18.3727,  4.47837,    2.484, 0.3114, 0.0000, 0.0001, 0.0002,  33.7397, 15 Nov 2018 08:08:02,  24.2152, 14.1,  93.0
2018-11-15T08:12:15Z,166.148.81.45,# 18.3669,  4.47773,    2.453, 0.3102, 0.0000, 0.0002, 0.0002,  33.7391, 15 Nov 2018 08:12:02,  24.2162, 14.1, 107.4
2018-11-15T08:16:08Z,166.148.81.45,# 18.3634,  4.47753,    2.493, 0.3059, 0.0000, 0.0002, 0.0003,  33.7403, 15 Nov 2018 08:16:02,  24.2180, 14.1, 106.1
2018-11-15T08:20:08Z,166.148.81.45,# 18.3620,  4.47750,    2.451, 0.3030, 0.0000, 0.0002, 0.0002,  33.7412, 15 Nov 2018 08:20:02,  24.2191, 14.1,  99.3
2018-11-15T08:24:08Z,166.148.81.45,# 18.3636,  4.47772,    2.454, 0.3033, 0.0000, 0.0001, 0.0002,  33.7418, 15 Nov 2018 08:24:02,  24.2191, 14.1,  88.9
2018-11-15T08:28:08Z,166.148.81.45,# 18.3615,  4.47740,    2.543, 0.2988, 0.0000, 0.0001, 0.0002,  33.7407, 15 Nov 2018 08:28:02,  24.2187, 14.1,  97.0
2018-11-15T08:32:08Z,166.148.81.45,# 18.3586,  4.47712,    2.566, 0.3001, 0.0000, 0.0002, 0.0002,  33.7408, 15 Nov 2018 08:32:02,  24.2196, 14.1,  81.3
2018-11-15T08:36:08Z,166.148.81.45,# 18.3571,  4.47697,    2.587, 0.2956, 0.0000, 0.0001, 0.0003,  33.7408, 15 Nov 2018 08:36:02,  24.2200, 14.1,  89.0
2018-11-15T08:40:08Z,166.148.81.45,# 18.3582,  4.47718,    2.533, 0.2924, 0.0000, 0.0001, 0.0002,  33.7416, 15 Nov 2018 08:40:02,  24.2203, 14.1,  98.1
2018-11-15T08:44:08Z,166.148.81.45,# 18.3600,  4.47745,    2.549, 0.2872, 0.0000, 0.0001, 0.0003,  33.7425, 15 Nov 2018 08:44:02,  24.2206, 14.1, 114.9
2018-11-15T08:48:08Z,166.148.81.45,# 18.3586,  4.47726,    2.574, 0.2879, 0.0000, 0.0001, 0.0002,  33.7420, 15 Nov 2018 08:48:02,  24.2205, 14.1, 101.9
2018-11-15T08:52:08Z,166.148.81.45,# 18.3589,  4.47725,    2.647, 0.2859, 0.0000, 0.0001, 0.0002,  33.7416, 15 Nov 2018 08:52:02,  24.2201, 14.1, 107.0
2018-11-15T08:56:08Z,166.148.81.45,# 18.3589,  4.47728,    2.587, 0.2863, 0.0000, 0.0001, 0.0003,  33.7419, 15 Nov 2018 08:56:02,  24.2203, 14.1,  91.9
2018-11-15T09:00:08Z,166.148.81.45,# 18.3584,  4.47726,    2.636, 0.2863, 0.0000, 0.0001, 0.0003,  33.7420, 15 Nov 2018 09:00:02,  24.2206, 14.1,  99.4
2018-11-15T09:04:08Z,166.148.81.45,2018 09:04:02,  24.2207, 14.1, 107.8
2018-11-15T09:08:08Z,166.148.81.45,# 18.3575,  4.47726,    2.604, 0.2842, 0.0000, 0.0001, 0.0002,  33.7428, 15 Nov 2018 09:08:02,  24.2214, 14.1,  94.3
2018-11-15T09:12:08Z,166.148.81.45,# 18.3572,  4.47718,    2.710, 0.2828, 0.0000, 0.0002, 0.0003,  33.7424, 15 Nov 2018 09:12:02,  24.2212, 14.1,  98.6
2018-11-15T09:16:08Z,166.148.81.45,# 18.3518,  4.47651,    2.698, 0.2840, 0.0000, 0.0002, 0.0002,  33.7412, 15 Nov 2018 09:16:02,  24.2216, 14.1, 105.4
2018-11-15T09:20:08Z,166.148.81.45,# 18.3380,  4.47493,    2.599, 0.2826, 0.0000, 0.0001, 0.0002,  33.7393, 15 Nov 2018 09:20:02,  24.2235, 14.1,  83.2
2018-11-15T09:24:08Z,166.148.81.45,# 18.3283,  4.47398,    2.727, 0.2817, 0.0000, 0.0001, 0.0002,  33.7392, 15 Nov 2018 09:24:02,  24.2258, 14.1,  84.4
2018-11-15T09:28:08Z,166.148.81.45,# 18.3229,  4.47359,    2.649, 0.2813, 0.0000, 0.0002, 0.0002,  33.7403, 15 Nov 2018 09:28:02,  24.2280, 14.1,  94.3
2018-11-15T09:32:08Z,166.148.81.45,# 18.3216,  4.47370,    2.753, 0.2791, 0.0000, 0.0002, 0.0003,  33.7422, 15 Nov 2018 09:32:02,  24.2299, 14.1,  94.0
2018-11-15T09:36:08Z,166.148.81.45,# 18.3215,  4.47382,    2.838, 0.2804, 0.0000, 0.0002, 0.0002,  33.7434, 15 Nov 2018 09:36:02,  24.2307, 14.1, 102.8
2018-11-15T09:40:08Z,166.148.81.45,# 18.3190,  4.47348,    2.778, 0.2802, 0.0000, 0.0002, 0.0003,  33.7426, 15 Nov 2018 09:40:02,  24.2307, 14.1, 117.7
2018-11-15T09:44:08Z,166.148.81.45,# 18.3185,  4.47345,    2.789, 0.2800, 0.0000, 0.0002, 0.0002,  33.7427, 15 Nov 2018 09:44:02,  24.2311, 14.1,  98.4
2018-11-15T09:52:08Z,166.148.81.45,# 18.3151,  4.47321,    2.813, 0.2783, 0.0000, 0.0001, 0.0003,  33.7434, 15 Nov 2018 09:52:02,  24.2324, 14.1,  92.6
2018-11-15T09:56:08Z,166.148.81.45,# 18.3131,  4.47288,    2.801, 0.2775, 0.0000, 0.0001, 0.0004,  33.7424, 15 Nov 2018 09:56:02,  24.2321, 14.1, 105.5
2018-11-15T10:00:08Z,166.148.81.45,8 10:00:02,  24.2324, 14.1,  94.7
2018-11-15T10:04:08Z,166.148.81.45,# 18.3091,  4.47256,    2.908, 0.2774, 0.0000, 0.0001, 0.0003,  33.7429, 15 Nov 2018 10:04:02,  24.2335, 14.1,  88.8
2018-11-15T10:08:08Z,166.148.81.45,# 18.3080,  4.47240,    2.873, 0.2763, 0.0000, 0.0001, 0.0002,  33.7425, 15 Nov 2018 10:08:02,  24.2334, 14.1, 106.4
2018-11-15T10:12:08Z,166.148.81.45,v 2018 10:12:02,  24.2338, 14.1, 105.6
2018-11-15T10:16:08Z,166.148.81.45,# 18.3077,  4.47247,    2.929, 0.2750, 0.0000, 0.0002, 0.0002,  33.7432, 15 Nov 2018 10:16:02,  24.2340, 14.1, 108.2
2018-11-15T10:20:08Z,166.148.81.45,# 18.3072,  4.47244,    2.856, 0.2748, 0.0000, 0.0002, 0.0003,  33.7435, 15 Nov 2018 10:20:02,  24.2344, 14.1, 108.3
2018-11-15T10:24:08Z,166.148.81.45,# 18.3055,  4.47226,    2.913, 0.2753, 0.0000, 0.0001, 0.0002,  33.7433, 15 Nov 2018 10:24:02,  24.2346, 14.1, 101.3
2018-11-15T10:28:08Z,166.148.81.45,# 18.3058,  4.47232,    2.934, 0.2752, 0.0000, 0.0002, 0.0004,  33.7436, 15 Nov 2018 10:28:02,  24.2349, 14.1,  91.0
2018-11-15T10:36:08Z,166.148.81.45,# 18.3083,  4.47259,    2.997, 0.2769, 0.0000, 0.0001, 0.0002,  33.7437, 15 Nov 2018 10:36:02,  24.2343, 14.1,  82.4
2018-11-15T10:40:08Z,166.148.81.45,# 18.3087,  4.47262,    2.877, 0.2756, 0.0000, 0.0002, 0.0003,  33.7437, 15 Nov 2018 10:40:02,  24.2341, 14.1,  96.3
2018-11-15T10:44:08Z,166.148.81.45,# 18.3087,  4.47260,    2.963, 0.2733, 0.0000, 0.0002, 0.0003,  33.7435, 15 Nov 2018 10:44:02,  24.2340, 14.1,  96.4